| time (UTC) | temp F | wind direction | speed MPH | gust MPH | rain 1hr in | rain 24hr in | rain mn in | humidity % | barometer mb |
| 20260503210821 | 58 | 44 | 2.0 | 7.0 | 0.02 | 0.36 | 0.23 | 95 | 1014.7 |
| 20260503210321 | 58 | 83 | 1.0 | 7.0 | 0.02 | 0.36 | 0.23 | 95 | 1014.7 |
| 20260503205807 | 58 | 51 | 0.0 | 6.0 | 0.02 | 0.36 | 0.23 | 96 | 1014.6 |
| 20260503205301 | 58 | 312 | 1.0 | 6.0 | 0.02 | 0.36 | 0.23 | 96 | 1014.6 |
| 20260503204800 | 58 | 349 | 1.0 | 5.0 | 0.02 | 0.36 | 0.23 | 96 | 1014.5 |
| 20260503204249 | 58 | 299 | 1.0 | 4.0 | 0.05 | 0.36 | 0.23 | 96 | 1014.5 |
| 20260503203749 | 58 | 285 | 1.0 | 5.0 | 0.05 | 0.35 | 0.22 | 96 | 1014.5 |
| 20260503203249 | 57 | 43 | 0.0 | 5.0 | 0.05 | 0.35 | 0.22 | 96 | 1014.4 |
| 20260503202747 | 57 | 337 | 0.0 | 1.0 | 0.05 | 0.35 | 0.22 | 95 | 1014.4 |
| 20260503202243 | 57 | 55 | 0.0 | 1.0 | 0.06 | 0.35 | 0.22 | 95 | 1014.3 |
| 20260503201744 | 57 | 63 | 0.0 | 1.0 | 0.05 | 0.35 | 0.21 | 95 | 1014.2 |
| 20260503201242 | 57 | 63 | 0.0 | 3.0 | 0.05 | 0.35 | 0.21 | 95 | 1014.4 |
| 20260503200743 | 57 | 339 | 0.0 | 3.0 | 0.05 | 0.35 | 0.21 | 95 | 1014.5 |
| 20260503200243 | 57 | 78 | 0.0 | 2.0 | 0.05 | 0.35 | 0.21 | 95 | 1014.3 |
| 20260503195744 | 57 | 301 | 0.0 | 3.0 | 0.05 | 0.35 | 0.21 | 95 | 1014.5 |
| 20260503195458 | 57 | 40 | 0.0 | 3.0 | 0.04 | 0.34 | 0.20 | 95 | 1014.4 |
| 20260503194959 | 57 | 22 | 1.0 | 6.0 | 0.04 | 0.34 | 0.20 | 95 | 1014.5 |
| 20260503194239 | 57 | 355 | 1.0 | 6.0 | 0.02 | 0.31 | 0.18 | 95 | 1014.6 |
| 20260503193742 | 57 | 40 | 1.0 | 6.0 | 0.01 | 0.31 | 0.18 | 95 | 1014.5 |
| 20260503193241 | 57 | 254 | 1.0 | 5.0 | 0.01 | 0.31 | 0.17 | 95 | 1014.4 |
| 20260503192741 | 57 | 28 | 2.0 | 7.0 | 0.01 | 0.31 | 0.17 | 95 | 1014.4 |
| 20260503192240 | 57 | 338 | 2.0 | 7.0 | 0.00 | 0.30 | 0.17 | 95 | 1014.5 |
| 20260503191741 | 57 | 347 | 2.0 | 8.0 | 0.00 | 0.30 | 0.17 | 95 | 1014.6 |
| 20260503191240 | 57 | 349 | 2.0 | 8.0 | 0.00 | 0.30 | 0.17 | 95 | 1014.5 |
| 20260503190734 | 57 | 29 | 1.0 | 4.0 | 0.00 | 0.30 | 0.17 | 95 | 1014.6 |
| 20260503190451 | 57 | 44 | 1.0 | 4.0 | 0.01 | 0.30 | 0.17 | 95 | 1014.7 |
| 20260503185721 | 57 | 39 | 1.0 | 4.0 | 0.01 | 0.30 | 0.17 | 95 | 1014.7 |
| 20260503185217 | 57 | 3 | 1.0 | 6.0 | 0.01 | 0.30 | 0.17 | 95 | 1014.7 |
| 20260503184710 | 58 | 51 | 2.0 | 7.0 | 0.01 | 0.30 | 0.17 | 95 | 1014.6 |
| 20260503184428 | 58 | 67 | 2.0 | 7.0 | 0.01 | 0.30 | 0.17 | 95 | 1014.7 |
| 20260503183659 | 58 | 14 | 1.0 | 7.0 | 0.01 | 0.30 | 0.17 | 95 | 1015.0 |
| 20260503183153 | 58 | 284 | 1.0 | 5.0 | 0.01 | 0.30 | 0.17 | 95 | 1015.1 |
| 20260503182648 | 58 | 28 | 1.0 | 5.0 | 0.01 | 0.30 | 0.17 | 95 | 1015.1 |
| 20260503182140 | 58 | 353 | 1.0 | 6.0 | 0.01 | 0.30 | 0.17 | 95 | 1015.1 |
| 20260503181635 | 58 | 55 | 1.0 | 6.0 | 0.02 | 0.30 | 0.17 | 95 | 1015.2 |
| 20260503181128 | 58 | 299 | 1.0 | 5.0 | 0.04 | 0.30 | 0.17 | 95 | 1015.2 |
| 20260503180623 | 58 | 23 | 0.0 | 5.0 | 0.06 | 0.30 | 0.17 | 95 | 1015.3 |
| 20260503180341 | 58 | 5 | 0.0 | 4.0 | 0.05 | 0.29 | 0.16 | 95 | 1015.2 |
| 20260503175609 | 58 | 322 | 0.0 | 3.0 | 0.06 | 0.29 | 0.16 | 95 | 1015.3 |
| 20260503175328 | 58 | 306 | 1.0 | 6.0 | 0.06 | 0.29 | 0.16 | 95 | 1015.3 |
| 20260503174557 | 58 | 39 | 1.0 | 6.0 | 0.06 | 0.29 | 0.16 | 95 | 1015.3 |
| 20260503174052 | 58 | 276 | 1.0 | 8.0 | 0.06 | 0.29 | 0.16 | 95 | 1015.3 |
| 20260503173545 | 58 | 343 | 2.0 | 8.0 | 0.06 | 0.29 | 0.16 | 95 | 1015.3 |
| 20260503173039 | 58 | 40 | 2.0 | 9.0 | 0.06 | 0.29 | 0.16 | 95 | 1015.2 |
| 20260503172533 | 58 | 294 | 3.0 | 9.0 | 0.07 | 0.29 | 0.16 | 95 | 1015.1 |
| 20260503172027 | 58 | 47 | 2.0 | 9.0 | 0.06 | 0.28 | 0.16 | 95 | 1015.1 |
| 20260503171521 | 58 | 10 | 3.0 | 9.0 | 0.06 | 0.28 | 0.14 | 95 | 1015.3 |
| 20260503171016 | 58 | 36 | 2.0 | 8.0 | 0.04 | 0.25 | 0.13 | 95 | 1015.5 |
| 20260503170509 | 58 | 8 | 2.0 | 9.0 | 0.04 | 0.24 | 0.11 | 95 | 1015.6 |
| 20260503150751 | 59 | 26 | 2.0 | 6.0 | 0.05 | 0.19 | 0.06 | 94 | 1016.5 |
| 20260503150508 | 59 | 78 | 2.0 | 6.0 | 0.05 | 0.19 | 0.06 | 94 | 1016.5 |
| 20260503140246 | 59 | 28 | 1.0 | 6.0 | 0.02 | 0.14 | 0.01 | 94 | 1016.9 |
| 20260503131151 | 59 | 342 | 0.0 | 4.0 | 0.01 | 0.13 | 0.13 | 92 | 1017.1 |
| 20260503130646 | 59 | 26 | 0.0 | 4.0 | 0.01 | 0.13 | 0.13 | 92 | 1017.2 |
| 20260503130139 | 59 | 40 | 1.0 | 4.0 | 0.01 | 0.13 | 0.13 | 92 | 1017.2 |
| 20260503110539 | 59 | 47 | 0.0 | 0.0 | 0.01 | 0.12 | 0.12 | 94 | 1017.6 |
| 20260503090504 | 60 | 292 | 0.0 | 4.0 | 0.03 | 0.05 | 0.05 | 91 | 1017.6 |
| 20260503081417 | 61 | 42 | 0.0 | 0.0 | 0.00 | 0.02 | 0.02 | 89 | 1017.4 |
| 20260503080917 | 61 | 349 | 0.0 | 0.0 | 0.00 | 0.02 | 0.02 | 89 | 1017.4 |
| 20260503080417 | 61 | 349 | 0.0 | 0.0 | 0.00 | 0.02 | 0.02 | 88 | 1017.4 |
| 20260503072408 | 62 | 316 | 0.0 | 0.0 | 0.00 | 0.02 | 0.02 | 85 | 1017.3 |
| 20260503071905 | 63 | 322 | 0.0 | 0.0 | 0.00 | 0.02 | 0.02 | 85 | 1017.2 |
| 20260503071403 | 63 | 38 | 0.0 | 0.0 | 0.00 | 0.02 | 0.02 | 84 | 1017.2 |
| 20260503070902 | 63 | 31 | 0.0 | 0.0 | 0.00 | 0.02 | 0.02 | 83 | 1017.2 |
| 20260503070622 | 63 | 239 | 0.0 | 0.0 | 0.00 | 0.02 | 0.02 | 82 | 1017.3 |
| 20260503054813 | 67 | 294 | 0.0 | 1.0 | 0.00 | 0.02 | 0.02 | 72 | 1017.4 |
| 20260503054309 | 67 | 294 | 0.0 | 1.0 | 0.00 | 0.02 | 0.02 | 71 | 1017.3 |
| 20260503053807 | 67 | 288 | 0.0 | 1.0 | 0.00 | 0.02 | 0.02 | 70 | 1017.3 |
| 20260503053306 | 68 | 291 | 0.0 | 1.0 | 0.00 | 0.02 | 0.02 | 69 | 1017.4 |
| 20260503052806 | 68 | 308 | 0.0 | 0.0 | 0.00 | 0.02 | 0.02 | 68 | 1017.4 |
| 20260503052305 | 68 | 339 | 0.0 | 1.0 | 0.00 | 0.02 | 0.02 | 67 | 1017.4 |
| 20260503052028 | 69 | 246 | 0.0 | 1.0 | 0.00 | 0.02 | 0.02 | 68 | 1017.4 |
| 20260503051300 | 68 | 318 | 0.0 | 4.0 | 0.00 | 0.02 | 0.02 | 70 | 1017.5 |
| 20260503050801 | 68 | 229 | 1.0 | 7.0 | 0.00 | 0.02 | 0.02 | 70 | 1017.7 |
| 20260503050258 | 68 | 299 | 0.0 | 7.0 | 0.00 | 0.02 | 0.02 | 68 | 1017.8 |
| 20260503050016 | 68 | 281 | 0.0 | 4.0 | 0.00 | 0.02 | 0.02 | 66 | 1017.7 |
| 20260503045259 | 68 | 339 | 1.0 | 6.0 | 0.00 | 0.02 | 0.02 | 66 | 1017.7 |
| 20260503044756 | 68 | 341 | 1.0 | 7.0 | 0.00 | 0.02 | 0.02 | 66 | 1017.7 |
| 20260503044517 | 68 | 55 | 1.0 | 7.0 | 0.00 | 0.02 | 0.02 | 66 | 1017.9 |
| 20260503044011 | 68 | 318 | 0.0 | 4.0 | 0.00 | 0.02 | 0.02 | 65 | 1017.9 |
| 20260503043238 | 68 | 45 | 1.0 | 5.0 | 0.00 | 0.02 | 0.02 | 65 | 1017.9 |
| 20260503043210 | 68 | 286 | 1.0 | 7.0 | 0.00 | 0.02 | 0.02 | 64 | 1017.9 |
| 20260503042226 | 69 | 323 | 1.0 | 7.0 | 0.00 | 0.02 | 0.02 | 63 | 1017.9 |
| 20260503041721 | 69 | 34 | 1.0 | 4.0 | 0.00 | 0.02 | 0.02 | 63 | 1017.9 |
| 20260503041217 | 69 | 21 | 1.0 | 5.0 | 0.00 | 0.02 | 0.02 | 62 | 1017.9 |
| 20260503040930 | 69 | 30 | 2.0 | 10.0 | 0.00 | 0.02 | 0.02 | 61 | 1017.9 |
| 20260503040202 | 70 | 31 | 3.0 | 11.0 | 0.00 | 0.02 | 0.02 | 60 | 1017.9 |
| 20260503035658 | 70 | 348 | 3.0 | 11.0 | 0.00 | 0.02 | 0.02 | 61 | 1018.0 |
| 20260503035150 | 70 | 33 | 2.0 | 10.0 | 0.00 | 0.02 | 0.02 | 62 | 1017.9 |
| 20260503034646 | 69 | 46 | 1.0 | 8.0 | 0.00 | 0.02 | 0.02 | 64 | 1017.9 |
| 20260503034138 | 69 | 40 | 1.0 | 6.0 | 0.00 | 0.02 | 0.02 | 63 | 1018.1 |
| 20260503033633 | 69 | 11 | 1.0 | 6.0 | 0.00 | 0.02 | 0.02 | 64 | 1018.4 |
| 20260503033126 | 69 | 268 | 1.0 | 6.0 | 0.00 | 0.02 | 0.02 | 62 | 1018.5 |
| 20260503032621 | 69 | 266 | 1.0 | 9.0 | 0.00 | 0.02 | 0.02 | 63 | 1018.5 |
| 20260503032116 | 69 | 331 | 1.0 | 9.0 | 0.00 | 0.02 | 0.02 | 63 | 1018.5 |
| 20260503031608 | 69 | 15 | 1.0 | 6.0 | 0.00 | 0.02 | 0.02 | 64 | 1018.6 |
| 20260503031102 | 69 | 83 | 1.0 | 6.0 | 0.00 | 0.02 | 0.02 | 63 | 1018.7 |
| 20260503031042 | 69 | 62 | 0.0 | 6.0 | 0.00 | 0.02 | 0.02 | 64 | 1018.7 |
| 20260503030051 | 69 | 313 | 1.0 | 8.0 | 0.00 | 0.02 | 0.02 | 63 | 1018.8 |
| 20260503025546 | 69 | 9 | 1.0 | 8.0 | 0.00 | 0.02 | 0.02 | 62 | 1018.8 |
| 20260503025038 | 69 | 310 | 2.0 | 6.0 | 0.00 | 0.02 | 0.02 | 65 | 1018.8 |
| 20260503024532 | 68 | 320 | 2.0 | 7.0 | 0.00 | 0.02 | 0.02 | 64 | 1019.0 |
| 20260503024026 | 68 | 51 | 1.0 | 7.0 | 0.00 | 0.02 | 0.02 | 64 | 1019.1 |
| 20260503023520 | 68 | 310 | 1.0 | 7.0 | 0.00 | 0.02 | 0.02 | 65 | 1019.2 |
| 20260503023016 | 68 | 321 | 1.0 | 4.0 | 0.00 | 0.02 | 0.02 | 65 | 1019.3 |
| 20260503022511 | 68 | 13 | 0.0 | 4.0 | 0.00 | 0.02 | 0.02 | 66 | 1019.4 |
| 20260503022010 | 67 | 298 | 0.0 | 2.0 | 0.00 | 0.02 | 0.02 | 69 | 1019.5 |
| 20260503021510 | 67 | 279 | 1.0 | 6.0 | 0.00 | 0.02 | 0.02 | 71 | 1019.7 |
| 20260503021008 | 67 | 282 | 1.0 | 12.0 | 0.00 | 0.02 | 0.02 | 70 | 1019.8 |
| 20260503020507 | 67 | 353 | 1.0 | 12.0 | 0.00 | 0.02 | 0.02 | 67 | 1019.8 |
| 20260503020223 | 67 | 300 | 2.0 | 7.0 | 0.00 | 0.02 | 0.02 | 68 | 1019.9 |
| 20260503015504 | 67 | 29 | 1.0 | 5.0 | 0.00 | 0.02 | 0.02 | 68 | 1019.9 |
| 20260503015004 | 67 | 216 | 0.0 | 2.0 | 0.00 | 0.02 | 0.02 | 72 | 1020.2 |
| 20260503014504 | 66 | 31 | 0.0 | 2.0 | 0.00 | 0.02 | 0.02 | 73 | 1020.2 |
| 20260503014004 | 65 | 31 | 0.0 | 3.0 | 0.00 | 0.02 | 0.02 | 75 | 1020.3 |
| 20260503013504 | 64 | 211 | 0.0 | 3.0 | 0.00 | 0.02 | 0.02 | 77 | 1020.4 |
| 20260503013004 | 63 | 122 | 0.0 | 1.0 | 0.00 | 0.02 | 0.02 | 78 | 1020.6 |
| 20260503012503 | 63 | 43 | 0.0 | 2.0 | 0.00 | 0.02 | 0.02 | 79 | 1020.6 |
| 20260503012002 | 63 | 145 | 0.0 | 2.0 | 0.00 | 0.02 | 0.02 | 78 | 1020.7 |
| 20260503011724 | 63 | 255 | 0.0 | 1.0 | 0.00 | 0.02 | 0.02 | 81 | 1020.8 |
| 20260503011228 | 62 | 302 | 0.0 | 1.0 | 0.00 | 0.02 | 0.02 | 82 | 1020.9 |
| 20260503010504 | 61 | 191 | 0.0 | 1.0 | 0.00 | 0.02 | 0.02 | 83 | 1021.0 |
| 20260503010002 | 61 | 191 | 0.0 | 1.0 | 0.00 | 0.02 | 0.02 | 86 | 1021.0 |
| 20260503005458 | 60 | 216 | 0.0 | 1.0 | 0.00 | 0.02 | 0.02 | 88 | 1021.1 |
| 20260503004950 | 59 | 216 | 0.0 | 1.0 | 0.00 | 0.02 | 0.02 | 87 | 1021.1 |
| 20260503004447 | 59 | 216 | 0.0 | 0.0 | 0.00 | 0.02 | 0.02 | 87 | 1021.2 |
| 20260503003939 | 59 | 216 | 0.0 | 1.0 | 0.00 | 0.02 | 0.02 | 88 | 1021.2 |
| 20260503003433 | 59 | 216 | 0.0 | 3.0 | 0.00 | 0.02 | 0.02 | 88 | 1021.2 |
| 20260503002927 | 59 | 216 | 0.0 | 3.0 | 0.00 | 0.02 | 0.02 | 88 | 1021.3 |
| 20260503002426 | 59 | 185 | 0.0 | 2.0 | 0.00 | 0.02 | 0.02 | 88 | 1021.3 |
| 20260503001926 | 59 | 227 | 0.0 | 2.0 | 0.00 | 0.02 | 0.02 | 88 | 1021.3 |
| 20260503001648 | 59 | 259 | 0.0 | 1.0 | 0.00 | 0.02 | 0.02 | 87 | 1021.4 |
| 20260503000926 | 59 | 301 | 0.0 | 1.0 | 0.00 | 0.02 | 0.02 | 88 | 1021.4 |
| 20260503000424 | 59 | 209 | 0.0 | 0.0 | 0.00 | 0.02 | 0.02 | 88 | 1021.5 |
| 20260502235924 | 59 | 209 | 0.0 | 1.0 | 0.00 | 0.02 | 0.02 | 88 | 1021.5 |
| 20260502235425 | 59 | 209 | 0.0 | 2.0 | 0.00 | 0.02 | 0.02 | 88 | 1021.5 |
| 20260502234924 | 58 | 204 | 0.0 | 2.0 | 0.00 | 0.02 | 0.02 | 88 | 1021.5 |
| 20260502234647 | 58 | 187 | 0.0 | 0.0 | 0.00 | 0.02 | 0.02 | 88 | 1021.5 |
| 20260502233924 | 58 | 187 | 0.0 | 0.0 | 0.00 | 0.02 | 0.02 | 88 | 1021.5 |
| 20260502233652 | 58 | 187 | 0.0 | 0.0 | 0.00 | 0.02 | 0.02 | 89 | 1021.7 |
| 20260502232920 | 58 | 187 | 0.0 | 0.0 | 0.00 | 0.02 | 0.02 | 89 | 1021.7 |
| 20260502232421 | 58 | 187 | 0.0 | 0.0 | 0.00 | 0.02 | 0.02 | 90 | 1021.8 |
| 20260502231920 | 58 | 187 | 0.0 | 0.0 | 0.00 | 0.02 | 0.02 | 90 | 1021.8 |
| 20260502231421 | 58 | 187 | 0.0 | 0.0 | 0.00 | 0.02 | 0.02 | 91 | 1021.8 |
| 20260502230920 | 57 | 187 | 0.0 | 0.0 | 0.00 | 0.02 | 0.02 | 91 | 1021.8 |
| 20260502230420 | 57 | 187 | 0.0 | 1.0 | 0.00 | 0.02 | 0.02 | 91 | 1021.9 |
| 20260502225921 | 57 | 187 | 0.0 | 1.0 | 0.00 | 0.02 | 0.02 | 91 | 1021.8 |
| 20260502225420 | 57 | 187 | 0.0 | 0.0 | 0.00 | 0.02 | 0.02 | 92 | 1021.8 |
| 20260502224922 | 56 | 187 | 0.0 | 0.0 | 0.00 | 0.02 | 0.02 | 92 | 1021.8 |
| 20260502224636 | 56 | 187 | 0.0 | 0.0 | 0.00 | 0.02 | 0.02 | 92 | 1021.8 |
| 20260502223916 | 56 | 187 | 0.0 | 0.0 | 0.00 | 0.02 | 0.02 | 92 | 1021.7 |
| 20260502223637 | 55 | 187 | 0.0 | 0.0 | 0.01 | 0.02 | 0.02 | 92 | 1021.7 |
| 20260502222917 | 55 | 187 | 0.0 | 0.0 | 0.02 | 0.02 | 0.02 | 92 | 1021.8 |
| 20260502222418 | 55 | 187 | 0.0 | 0.0 | 0.02 | 0.02 | 0.02 | 92 | 1021.7 |
| 20260502221916 | 56 | 187 | 0.0 | 0.0 | 0.02 | 0.02 | 0.02 | 92 | 1021.7 |
| 20260502221415 | 56 | 187 | 0.0 | 0.0 | 0.02 | 0.02 | 0.02 | 92 | 1021.7 |
| 20260502220917 | 56 | 187 | 0.0 | 0.0 | 0.02 | 0.02 | 0.02 | 92 | 1021.5 |
| 20260502220418 | 55 | 187 | 0.0 | 0.0 | 0.02 | 0.02 | 0.02 | 92 | 1021.4 |
| 20260502215911 | 55 | 187 | 0.0 | 0.0 | 0.02 | 0.02 | 0.02 | 92 | 1021.2 |
| 20260502215403 | 55 | 187 | 0.0 | 0.0 | 0.02 | 0.02 | 0.02 | 92 | 1021.1 |
| 20260502214857 | 55 | 187 | 0.0 | 0.0 | 0.02 | 0.02 | 0.02 | 91 | 1021.2 |
| 20260502214351 | 55 | 187 | 0.0 | 0.0 | 0.02 | 0.02 | 0.02 | 91 | 1021.4 |
| 20260502213848 | 55 | 187 | 0.0 | 0.0 | 0.02 | 0.02 | 0.02 | 91 | 1021.2 |
| 20260502213339 | 55 | 187 | 0.0 | 0.0 | 0.01 | 0.01 | 0.01 | 90 | 1021.2 |
| 20260502212833 | 55 | 187 | 0.0 | 0.0 | 0.00 | 0.00 | 0.00 | 90 | 1021.3 |
| 20260502212555 | 54 | 187 | 0.0 | 0.0 | 0.00 | 0.00 | 0.00 | 90 | 1021.4 |
| 20260502211822 | 54 | 187 | 0.0 | 0.0 | 0.00 | 0.00 | 0.00 | 90 | 1021.3 |
| 20260502211317 | 54 | 187 | 0.0 | 0.0 | 0.00 | 0.00 | 0.00 | 90 | 1021.3 |